sat.trackr.live / text

‹ back to catalog

GSAT0208 (GALILEO 11)

NORAD 41175 · 2015-079B

PAYLOAD ACTIVE UNKNOWN

§ Identity

Operator
Country
ESA
Launch date
2015-12-17
Launch site
FRGUI
Launch vehicle
Mass (kg)
RCS (m²)
9.95

Purposes: earth_obs, nav

External: N2YO · Heavens-Above · Gunter

§ Orbital elements

Epoch: 2026-05-24T05:00:59.089536Z

Period
844.70 min
Inclination
55.8123°
Eccentricity
0.0004926
Mean motion
1.70473757 rev/d
Perigee alt
23,207.6 km
Apogee alt
23,236.8 km
Semi-major
29,600.3 km
B*
0.0000e+0
RAAN
101.9158°
Arg perigee
337.4451°
Mean anomaly
22.4937°
Rev number
6,478

§ Raw data

GSAT0208 (GALILEO 11)1 41175U 15079B   26144.20901724  .00000017  00000+0  00000+0 0  99982 41175  55.8123 101.9158 0004926 337.4451  22.4937  1.70473757 64780

JSON: /api/v1/satellites/41175 · /tle

For live sub-satellite position, see the globe view (requires WebGL).

§ Visibility from observer

Set your observer location to see the next 7 days of passes ≥ 10°. The values pass through the URL so the page stays shareable.

No JS? Fill the form by hand. The geolocation button needs JavaScript.